[[{"header":{"parameterUnit":"m.s-1","parameterCategory":2,"la1":30.2992,"la2":30.254,"lo1":-89.0895,"lo2":-89.0443,"dy":0.0025,"dx":0.0025,"nx":19,"ny":19,"refTime":"2026-04-19T09:00:00:Z","depth":"0","parameterNumber":2,"parameterNumberName":"U-component_of_CURRENTS"},"data":[0,0,0,0.2848,0.2849,0.2892,0.2893,0.2981,0.2982,0,0,0,0,0,0,0,0,0,0,0,0.2821,0.2821,0.2848,0.285,0.2892,0.2893,0.298,0.2982,0,0,0,0,0,0,0,0,0,0,0,0.2821,0.2821,0.2822,0.285,0.2892,0.2893,0.298,0.2937,0,0,0,0,0,0,0,0,0,0,0.289,0.2863,0.2821,0.2822,0.285,0.2892,0.2893,0.2934,0.294,0.2974,0,0.298,0,0.2995,0.2989,0.299,0,0,0,0.2839,0.2858,0.2876,0.2822,0.2851,0.2892,0.287,0.2937,0.2943,0.2981,0.2981,0.2984,0.2996,0.299,0.2991,0.3149,0.315,0,0,0.2836,0.2825,0.2872,0.288,0.2862,0.2869,0.2872,0.294,0.2944,0.2981,0.2987,0.2998,0.2991,0.2992,0.3148,0.3149,0,0,0,0.2837,0.2823,0.2839,0.2876,0.2888,0.287,0.2873,0.294,0.2947,0.2988,0.2999,0.2991,0.2993,0.3147,0.3149,0.3159,0,0,0,0.2835,0.2825,0.2837,0.2831,0.2886,0.2911,0.2872,0.2942,0.295,0.2998,0.2992,0.2994,0.3146,0.3148,0.3157,0.3167,0,0,0,0.2819,0.2824,0.2829,0.283,0.2856,0.291,0.292,0.2943,0.2958,0.299,0.2994,0.3146,0.3148,0.3155,0.3164,0.3251,0,0,0,0.2805,0.2807,0.2829,0.2846,0.2856,0.2904,0.2919,0.2943,0.2966,0.2992,0.3146,0.3149,0.3154,0.3162,0.3248,0.3121,0.3125,0,0,0.2797,0.2805,0.2819,0.2841,0.2872,0.2897,0.2959,0.2983,0.3018,0.3122,0.3125,0.3158,0.3164,0.325,0.3242,0.3242,0,0,0,0.2812,0.2809,0.2828,0.2853,0.2901,0.2951,0.2986,0.3038,0.3123,0.3046,0.3198,0.3202,0.3256,0.3174,0.3175,0.3038,0.3158,0.3158,0.3158,0.2756,0.2794,0.2807,0.2856,0.2899,0.2989,0.3057,0.3142,0.3157,0.3213,0.324,0.3352,0.3265,0.3264,0.3125,0.3271,0.3271,0.3271,0.3271,0.2723,0.2726,0.2783,0.2807,0.289,0.2955,0.3127,0.3176,0.3342,0.3314,0.3366,0.3224,0.3266,0.3116,0.3273,0.3272,0.3272,0.3272,0.3272,0.2668,0.2673,0.2697,0.2743,0.2814,0.2934,0.3061,0.3213,0.335,0.3416,0.3364,0.3361,0.3208,0.3449,0.3449,0.345,0.345,0.345,0.3451,0.2598,0.2622,0.2619,0.268,0.2711,0.2813,0.3044,0.3166,0.3325,0.3387,0.3387,0.3225,0.3408,0.3375,0.3457,0.3456,0.3455,0.3455,0.3454,0.2526,0.254,0.2532,0.2548,0.2617,0.2644,0.2882,0.3076,0.3251,0.3296,0.3188,0.339,0.3387,0.3383,0.3352,0.3424,0.3424,0.3424,0.3424,0.2468,0.2479,0.2438,0.2435,0.2472,0.2559,0.2617,0.2811,0.3002,0.3032,0.3102,0.2983,0.299,0.2958,0.2964,0.2923,0.2885,0.2884,0.2884,0.2421,0.242,0.2358,0.2356,0.2383,0.2431,0.2414,0.2459,0.2697,0.2854,0.2942,0.2965,0.2783,0.2806,0.2747,0.2767,0.2697,0,0]},{"header":{"parameterUnit":"m.s-1","parameterCategory":2,"la1":30.2992,"la2":30.254,"lo1":-89.0895,"lo2":-89.0443,"dy":0.0025,"dx":0.0025,"nx":19,"ny":19,"refTime":"2026-04-19T09:00:00:Z","depth":"0","parameterNumber":3,"parameterNumberName":"V-component_of_CURRENTS"},"data":[0,0,0,0.0284,0.0284,0.0265,0.0265,0.0197,0.0196,0,0,0,0,0,0,0,0,0,0,0,0.0282,0.0282,0.0284,0.0284,0.0265,0.0265,0.0197,0.0196,0,0,0,0,0,0,0,0,0,0,0,0.0282,0.0282,0.0282,0.0284,0.0265,0.0265,0.0197,0.0219,0,0,0,0,0,0,0,0,0,0,0.0241,0.0252,0.0282,0.0282,0.0284,0.0266,0.0265,0.022,0.0217,0.0196,0,0.0198,0,0.0203,0.0192,0.0191,0,0,0,0.027,0.0254,0.0252,0.0282,0.0284,0.0266,0.027,0.0219,0.0216,0.0192,0.0197,0.0195,0.0202,0.0191,0.0191,0.0182,0.0183,0,0,0.0272,0.0274,0.0254,0.025,0.0284,0.0271,0.027,0.0217,0.0213,0.0197,0.0193,0.0201,0.0191,0.019,0.0182,0.0182,0,0,0,0.0283,0.0274,0.0274,0.0253,0.0257,0.027,0.0269,0.0215,0.0216,0.0193,0.02,0.019,0.0189,0.0181,0.0182,0.0277,0,0,0,0.0283,0.0282,0.0274,0.0275,0.0259,0.0243,0.0268,0.0219,0.0214,0.0201,0.019,0.0189,0.0181,0.0182,0.0274,0.0353,0,0,0,0.0282,0.0282,0.0282,0.0275,0.0274,0.0245,0.0242,0.0218,0.0219,0.0191,0.0189,0.0181,0.0182,0.0271,0.0346,0.0436,0,0,0,0.0282,0.0306,0.0282,0.0309,0.0275,0.03,0.0242,0.0242,0.0226,0.019,0.0181,0.0182,0.027,0.0342,0.0431,0.0542,0.0574,0,0,0.0318,0.031,0.0328,0.0308,0.0351,0.0301,0.0338,0.0284,0.023,0.0191,0.0191,0.0275,0.0346,0.0435,0.0597,0.0627,0,0,0,0.0344,0.0363,0.0369,0.0386,0.0384,0.0399,0.0349,0.0325,0.0292,0.0227,0.0267,0.031,0.0363,0.0419,0.0443,0.0369,0.0186,0.0186,0.0186,0.0401,0.0407,0.0451,0.0464,0.0477,0.0461,0.0466,0.0423,0.0352,0.0352,0.038,0.0508,0.0566,0.0586,0.0508,0.0351,0.0352,0.0352,0.0352,0.0477,0.051,0.0522,0.057,0.0576,0.0604,0.0583,0.0543,0.0559,0.0467,0.0512,0.0507,0.0619,0.0525,0.0358,0.0357,0.0356,0.0356,0.0355,0.0519,0.0541,0.0566,0.0637,0.0701,0.0707,0.0797,0.0742,0.0678,0.0713,0.0775,0.0774,0.0701,0.0735,0.0736,0.0736,0.0737,0.0737,0.0738,0.055,0.058,0.065,0.0721,0.0787,0.0879,0.0932,0.0972,0.0984,0.0923,0.0923,0.0748,0.0625,0.0621,0.0749,0.0747,0.0746,0.0745,0.0744,0.0613,0.0623,0.073,0.0801,0.0965,0.1126,0.117,0.1297,0.1301,0.1333,0.1067,0.1027,0.102,0.1,0.1005,0.1225,0.1225,0.1225,0.1225,0.0651,0.0666,0.0815,0.0947,0.1109,0.1246,0.1506,0.1581,0.1445,0.1343,0.122,0.1124,0.1108,0.1097,0.1075,0.1076,0.1309,0.1309,0.1309,0.0701,0.0743,0.0859,0.0989,0.118,0.1399,0.167,0.1807,0.1547,0.1297,0.1099,0.1096,0.0929,0.091,0.0862,0.0837,0.0828,0,0]}],[{"header":{"parameterUnit":"m.s-1","parameterCategory":2,"la1":30.2992,"la2":30.254,"lo1":-89.0895,"lo2":-89.0443,"dy":0.0025,"dx":0.0025,"nx":19,"ny":19,"refTime":"2026-04-19T09:00:00:Z","depth":"2","parameterNumber":2,"parameterNumberName":"U-component_of_CURRENTS"},"data":[0,0,0,0.2274,0.2276,0.2335,0.2335,0.2386,0.2386,0,0,0,0,0,0,0,0,0,0,0,0.2247,0.2247,0.2274,0.2276,0.2335,0.2335,0.2386,0.2386,0,0,0,0,0,0,0,0,0,0,0,0.2247,0.2247,0.2248,0.2276,0.2335,0.2335,0.2386,0.2345,0,0,0,0,0,0,0,0,0,0,0.229,0.2275,0.2247,0.2248,0.2277,0.2335,0.2335,0.2344,0.2348,0.2355,0,0.2366,0,0.2384,0.239,0.239,0,0,0,0.2268,0.2271,0.2287,0.2248,0.2277,0.2335,0.2306,0.2346,0.2351,0.236,0.2367,0.237,0.2385,0.239,0.2391,0.2505,0.2506,0,0,0.2265,0.2258,0.2284,0.229,0.2296,0.2304,0.2308,0.2349,0.2356,0.2368,0.2371,0.2386,0.2391,0.2391,0.2504,0.2505,0,0,0,0.2261,0.2255,0.227,0.2287,0.2304,0.2306,0.231,0.2353,0.2358,0.2372,0.2387,0.2391,0.2392,0.2503,0.2504,0.2551,0,0,0,0.2258,0.2254,0.2268,0.2265,0.2303,0.2335,0.2314,0.2355,0.2361,0.2386,0.2391,0.2392,0.2502,0.2504,0.2548,0.2541,0,0,0,0.2243,0.2252,0.226,0.2264,0.2295,0.2334,0.2342,0.2357,0.237,0.239,0.2392,0.2501,0.2503,0.2545,0.2537,0.2624,0,0,0,0.2232,0.2242,0.226,0.2283,0.2294,0.2345,0.2342,0.2373,0.2391,0.2391,0.2502,0.2504,0.2544,0.2535,0.2621,0.2473,0.2477,0,0,0.2235,0.2242,0.2257,0.2275,0.2311,0.2336,0.2395,0.241,0.2428,0.2483,0.2486,0.2549,0.2537,0.2623,0.259,0.259,0,0,0,0.2252,0.2254,0.2272,0.23,0.2345,0.2394,0.2424,0.2463,0.2531,0.2452,0.2577,0.2568,0.2621,0.2526,0.2527,0.2514,0.2514,0.2513,0.2513,0.2223,0.2252,0.2272,0.2314,0.2359,0.2436,0.2495,0.2558,0.2566,0.2622,0.2628,0.275,0.265,0.2648,0.2668,0.2668,0.2668,0.2669,0.2669,0.2207,0.2212,0.2263,0.2292,0.2365,0.2427,0.2563,0.2607,0.2739,0.271,0.2761,0.2605,0.2651,0.2673,0.2672,0.2672,0.2671,0.2671,0.2671,0.2168,0.2173,0.2201,0.2252,0.2324,0.2426,0.2533,0.2655,0.2766,0.2825,0.2755,0.2752,0.277,0.2872,0.2873,0.2873,0.2873,0.2874,0.2874,0.2113,0.2139,0.2149,0.2214,0.2252,0.235,0.2535,0.2623,0.2736,0.2784,0.2784,0.2819,0.2812,0.2783,0.288,0.2879,0.2878,0.2877,0.2877,0.2057,0.2075,0.2081,0.2106,0.2183,0.2204,0.2405,0.2528,0.2665,0.268,0.278,0.278,0.2753,0.275,0.272,0.2795,0.2795,0.2795,0.2795,0.2013,0.2025,0.2007,0.2015,0.2055,0.2128,0.2143,0.2248,0.2446,0.2518,0.253,0.2425,0.2434,0.2384,0.2389,0.235,0.2329,0.2328,0.2327,0.1977,0.198,0.1939,0.1946,0.1975,0.2003,0.1945,0.1886,0.2032,0.2309,0.2451,0.2763,0.2636,0.264,0.2584,0.2584,0.2528,0,0]},{"header":{"parameterUnit":"m.s-1","parameterCategory":2,"la1":30.2992,"la2":30.254,"lo1":-89.0895,"lo2":-89.0443,"dy":0.0025,"dx":0.0025,"nx":19,"ny":19,"refTime":"2026-04-19T09:00:00:Z","depth":"2","parameterNumber":3,"parameterNumberName":"V-component_of_CURRENTS"},"data":[0,0,0,0.0214,0.0214,0.0194,0.0194,0.0138,0.0138,0,0,0,0,0,0,0,0,0,0,0,0.0214,0.0214,0.0214,0.0214,0.0194,0.0193,0.0138,0.0138,0,0,0,0,0,0,0,0,0,0,0,0.0214,0.0214,0.0214,0.0214,0.0194,0.0193,0.0138,0.0158,0,0,0,0,0,0,0,0,0,0,0.018,0.019,0.0214,0.0214,0.0214,0.0194,0.0193,0.0159,0.0157,0.0142,0,0.0143,0,0.0147,0.0134,0.0134,0,0,0,0.0202,0.0192,0.0189,0.0214,0.0214,0.0194,0.0199,0.0158,0.0155,0.0139,0.0142,0.0141,0.0146,0.0134,0.0134,0.0139,0.0139,0,0,0.0203,0.0206,0.0191,0.0187,0.0213,0.02,0.0199,0.0156,0.0154,0.0142,0.014,0.0145,0.0134,0.0133,0.0138,0.0139,0,0,0,0.0214,0.0207,0.0205,0.0189,0.0192,0.02,0.0198,0.0155,0.0155,0.0139,0.0144,0.0133,0.0133,0.0138,0.0138,0.0217,0,0,0,0.0214,0.0215,0.0205,0.0207,0.0193,0.0179,0.0198,0.0158,0.0154,0.0145,0.0133,0.0132,0.0137,0.0138,0.0214,0.0284,0,0,0,0.0214,0.0215,0.0214,0.0207,0.0205,0.018,0.0177,0.0157,0.0157,0.0134,0.0132,0.0137,0.0138,0.0211,0.0278,0.0343,0,0,0,0.0216,0.0238,0.0214,0.0239,0.0205,0.0227,0.0177,0.0177,0.0163,0.0133,0.0137,0.0138,0.021,0.0274,0.0339,0.0398,0.0422,0,0,0.025,0.0242,0.0258,0.0238,0.0277,0.0229,0.0263,0.0216,0.0172,0.0146,0.0146,0.0215,0.0277,0.0342,0.0455,0.0478,0,0,0,0.0274,0.0291,0.0296,0.0311,0.0308,0.0321,0.0275,0.0255,0.0229,0.0171,0.0213,0.0251,0.0289,0.0315,0.0333,0.0143,0.0143,0.0143,0.0143,0.033,0.0334,0.0375,0.0385,0.0396,0.0379,0.0382,0.0347,0.0284,0.0286,0.0312,0.0417,0.0444,0.0458,0.0289,0.0289,0.029,0.029,0.029,0.0404,0.0434,0.0443,0.0487,0.0491,0.0516,0.0494,0.0456,0.0465,0.0389,0.0421,0.0394,0.0483,0.0296,0.0295,0.0294,0.0294,0.0293,0.0293,0.0445,0.0465,0.0488,0.0553,0.061,0.0612,0.0687,0.0633,0.0569,0.0593,0.0613,0.0611,0.0487,0.0602,0.0603,0.0604,0.0604,0.0605,0.0605,0.0478,0.0505,0.0568,0.0633,0.0692,0.0772,0.0806,0.0825,0.08,0.0737,0.0736,0.0523,0.0512,0.0505,0.0614,0.0613,0.0611,0.0611,0.061,0.0537,0.0547,0.0642,0.0707,0.0854,0.0983,0.1009,0.1064,0.1049,0.1048,0.081,0.0802,0.0791,0.0776,0.0775,0.0948,0.0948,0.0948,0.0948,0.0573,0.0586,0.0718,0.0835,0.0979,0.1085,0.1257,0.1252,0.1136,0.1031,0.1027,0.0952,0.0937,0.0928,0.0909,0.0908,0.1116,0.1116,0.1116,0.0617,0.0653,0.0753,0.087,0.1038,0.1207,0.1371,0.1358,0.1159,0.1119,0.1015,0.0967,0.084,0.0823,0.0791,0.0768,0.0758,0,0]}],[{"header":{"parameterUnit":"m.s-1","parameterCategory":2,"la1":30.2992,"la2":30.254,"lo1":-89.0895,"lo2":-89.0443,"dy":0.0025,"dx":0.0025,"nx":19,"ny":19,"refTime":"2026-04-19T09:00:00:Z","depth":"4","parameterNumber":2,"parameterNumberName":"U-component_of_CURRENTS"},"data":[0,0,0,0.1478,0.1481,0.1608,0.1608,0.1659,0.1659,0,0,0,0,0,0,0,0,0,0,0,0.1437,0.1438,0.1478,0.1481,0.1608,0.1608,0.1659,0.1659,0,0,0,0,0,0,0,0,0,0,0,0.1437,0.1438,0.1439,0.1481,0.1608,0.1608,0.1659,0.159,0,0,0,0,0,0,0,0,0,0,0.1481,0.1471,0.1438,0.1439,0.1482,0.1608,0.1608,0.1588,0.1595,0.1571,0,0.1603,0,0.163,0.1661,0.1661,0,0,0,0.1478,0.1467,0.149,0.1439,0.1483,0.1607,0.155,0.1593,0.16,0.1579,0.1604,0.1606,0.1631,0.1661,0.1661,0.1705,0.1705,0,0,0.1471,0.1466,0.1485,0.1494,0.153,0.1546,0.1554,0.1598,0.1615,0.1604,0.1608,0.1632,0.1661,0.1661,0.1704,0.1705,0,0,0,0.1453,0.1461,0.1486,0.1491,0.1523,0.1549,0.1559,0.1613,0.1619,0.1609,0.1632,0.1661,0.1661,0.1704,0.1705,0.178,0,0,0,0.1448,0.1451,0.1483,0.1482,0.1523,0.1588,0.1572,0.1616,0.1622,0.1632,0.1661,0.1661,0.1704,0.1704,0.1777,0.178,0,0,0,0.1429,0.1449,0.1466,0.1482,0.1537,0.1588,0.1598,0.1619,0.1636,0.1661,0.1661,0.1703,0.1704,0.1774,0.1777,0.1802,0,0,0,0.1415,0.1442,0.1466,0.1508,0.1536,0.1606,0.1598,0.1653,0.1679,0.1661,0.1704,0.1705,0.1773,0.1775,0.1799,0.1592,0,0,0,0.143,0.1444,0.1465,0.149,0.1549,0.1587,0.1656,0.1685,0.1679,0.1679,0.1682,0.1778,0.1777,0.1801,0.1642,0,0,0,0,0.1457,0.1472,0.1496,0.1543,0.1597,0.1661,0.1701,0.1718,0.1756,0.17,0.1774,0.177,0.1783,0.1655,0.1709,0.1709,0.1708,0.1708,0.1708,0.1454,0.1483,0.1523,0.1572,0.1629,0.1712,0.1759,0.1785,0.1786,0.1816,0.183,0.1892,0.1761,0.1842,0.1842,0.1842,0.1843,0.1843,0.1843,0.1454,0.1467,0.1533,0.1585,0.1663,0.1737,0.1817,0.1845,0.1899,0.1884,0.1895,0.1741,0.185,0.1849,0.1848,0.1847,0.1846,0.1846,0.1846,0.1424,0.1433,0.1487,0.1571,0.1667,0.1767,0.1835,0.1907,0.1945,0.1976,0.1834,0.1929,0.1924,0.1998,0.1999,0.1999,0.1999,0.1999,0.1999,0.1364,0.1413,0.1458,0.1558,0.1623,0.1729,0.1858,0.1889,0.1954,0.187,0.1999,0.1944,0.1939,0.1931,0.2002,0.2001,0.2001,0.2001,0.2,0.1304,0.1349,0.1394,0.1454,0.1573,0.1624,0.1781,0.1798,0.1815,0.1778,0.1804,0.1813,0.1757,0.1757,0.174,0.1757,0.1754,0.1752,0,0.1261,0.1286,0.1332,0.1379,0.1427,0.1544,0.1531,0.1599,0.1647,0.1596,0.1807,0.1835,0.184,0.1776,0.1771,0.175,0,0,0,0.1226,0.1247,0.125,0.1306,0.134,0.1394,0.1516,0.1483,0.1652,0.1609,0.1691,0.1707,0.1893,0.2009,0.1943,0.1937,0.1921,0,0]},{"header":{"parameterUnit":"m.s-1","parameterCategory":2,"la1":30.2992,"la2":30.254,"lo1":-89.0895,"lo2":-89.0443,"dy":0.0025,"dx":0.0025,"nx":19,"ny":19,"refTime":"2026-04-19T09:00:00:Z","depth":"4","parameterNumber":3,"parameterNumberName":"V-component_of_CURRENTS"},"data":[0,0,0,0.0195,0.0195,0.0188,0.0187,0.0168,0.0168,0,0,0,0,0,0,0,0,0,0,0,0.0194,0.0194,0.0195,0.0195,0.0188,0.0187,0.0168,0.0168,0,0,0,0,0,0,0,0,0,0,0,0.0193,0.0194,0.0194,0.0195,0.0188,0.0187,0.0168,0.0174,0,0,0,0,0,0,0,0,0,0,0.0182,0.0187,0.0194,0.0194,0.0195,0.0188,0.0187,0.0175,0.0174,0.0172,0,0.0174,0,0.0177,0.0168,0.0167,0,0,0,0.0186,0.0188,0.0186,0.0194,0.0196,0.0188,0.0188,0.0174,0.0173,0.0171,0.0174,0.0173,0.0177,0.0167,0.0167,0.02,0.0201,0,0,0.0187,0.019,0.0187,0.0186,0.0198,0.0189,0.0188,0.0174,0.0174,0.0174,0.0173,0.0176,0.0167,0.0167,0.02,0.02,0,0,0,0.0194,0.0191,0.0189,0.0187,0.0189,0.0189,0.0188,0.0175,0.0175,0.0173,0.0176,0.0167,0.0167,0.0199,0.02,0.0254,0,0,0,0.0194,0.0196,0.019,0.0191,0.019,0.0184,0.019,0.0175,0.0174,0.0176,0.0167,0.0167,0.0199,0.02,0.0251,0.0297,0,0,0,0.0193,0.0196,0.0196,0.0192,0.0193,0.0185,0.0183,0.0175,0.0176,0.0167,0.0167,0.0198,0.0199,0.0249,0.0292,0.0319,0,0,0,0.0194,0.0212,0.0196,0.0217,0.0193,0.0214,0.0183,0.0189,0.0185,0.0167,0.0199,0.02,0.0249,0.0289,0.0317,0.0321,0,0,0,0.0222,0.0216,0.0229,0.0215,0.0249,0.0214,0.0246,0.0222,0.02,0.02,0.0201,0.0252,0.0292,0.0319,0.0381,0,0,0,0,0.0241,0.0255,0.0261,0.0275,0.0276,0.029,0.0263,0.0254,0.0253,0.0205,0.0258,0.0282,0.0297,0.0292,0.0205,0.0205,0.0205,0.0205,0.0204,0.0285,0.029,0.0325,0.0335,0.0347,0.0341,0.0346,0.0332,0.0295,0.0306,0.0329,0.0395,0.0392,0.0321,0.0321,0.0321,0.0321,0.0322,0.0322,0.0342,0.0366,0.038,0.0418,0.0427,0.0454,0.0443,0.0419,0.0428,0.0388,0.0398,0.0354,0.0327,0.0326,0.0325,0.0325,0.0324,0.0324,0.0324,0.0372,0.0388,0.0413,0.0472,0.0527,0.0535,0.0588,0.0553,0.0502,0.0513,0.0494,0.0439,0.043,0.0511,0.0511,0.0511,0.0512,0.0512,0.0512,0.0391,0.0418,0.0474,0.0537,0.0591,0.0656,0.0678,0.0676,0.0616,0.0578,0.0535,0.0459,0.0453,0.0441,0.0517,0.0516,0.0516,0.0515,0.0515,0.0426,0.0441,0.0522,0.0581,0.0707,0.0752,0.0781,0.0754,0.0748,0.07,0.06,0.0594,0.0577,0.0569,0.056,0.0674,0.0674,0.0675,0,0.0446,0.0461,0.0569,0.0666,0.0768,0.081,0.0837,0.0822,0.0731,0.0719,0.0719,0.0607,0.0602,0.0582,0.0574,0.0565,0,0,0,0.047,0.0501,0.0578,0.0678,0.0794,0.0825,0.0844,0.0823,0.0752,0.0737,0.0684,0.0682,0.0605,0.0532,0.0493,0.0486,0.0466,0,0]}]]